sat.trackr.live / text

‹ back to catalog

PAYLOAD B

NORAD 49113 · 2021-076B

PAYLOAD ACTIVE UNKNOWN

§ Identity

Operator
Country
PRC
Launch date
2021-08-24
Launch site
JSC
Launch vehicle
Mass (kg)
RCS (m²)

External: N2YO · Heavens-Above · Gunter

§ Orbital elements

Epoch: 2026-09-12T04:16:33.965760Z

Period
102.16 min
Inclination
86.4007°
Eccentricity
0.0017428
Mean motion
14.09485014 rev/d
Perigee alt
848.5 km
Apogee alt
873.8 km
Semi-major
7,239.3 km
B*
6.3303e-5
RAAN
48.1392°
Arg perigee
298.0805°
Mean anomaly
61.8614°
Rev number
25,968

§ Raw data

PAYLOAD B1 49113U 21076B   26255.17817090  .00000129  00000+0  63303-4 0  99972 49113  86.4007  48.1392 0017428 298.0805  61.8614 14.09485014259688

JSON: /api/v1/satellites/49113 · /tle

For live sub-satellite position, see the globe view (requires WebGL).

§ Visibility from observer

Set your observer location to see the next 7 days of passes ≥ 10°. The values pass through the URL so the page stays shareable.

No JS? Fill the form by hand. The geolocation button needs JavaScript.